User: anonymous   Login
Location: Unspecified
(0.0000°N, 0.0000°E)
Time: 23:01:17
(UTC+00:00)
Language:

ISS - Orbit

View from above orbital plane
View from above orbital plane
View from above satellite
View from above satellite

Ground track
Ground track

The orbit data is extracted from the following two-line orbital elements,

1 25544U 98067A   19286.89060424  .00000687  00000-0  19958-4 0  9996
2 25544  51.6424 132.6513 0007305 145.5461 284.0246 15.50196795193676
Epoch (UTC): 13 October 2019 21:22:28
Eccentricity: 0.0007305
inclination: 51.6424°
perigee height: 411 km
apogee height: 421 km
right ascension of ascending node: 132.6513°
argument of perigee: 145.5461°
revolutions per day: 15.50196795
mean anomaly at epoch: 284.0246°
orbit number at epoch: 19367

The dashed part of the orbit path shows where the satellite is in the earth's shadow,  

DLR